weather.gov     
National Weather Service

Terminal Aerodrome Forecast
NWS Homepage
This page is being discontinued on March 12, 2014.
The same data is available at this site. Please update your bookmarks.
Thank you, and we apologize for the inconvenience.
Please send an email to SR-SRH.Webmaster@noaa.gov with any concerns.


Current Version
Previous Version:    01  02  03  04  05  06  07  08  09  10  11  12  13  14  15  16  17  18  19  20  21  22  23  24  25  26  27  28  29  30  
   31  
[Printable]
066
FTUS41 KAKQ 221200 CCA
TAFPHF
TAF COR
KPHF 221200Z 2212/2312 04008KT 4SM -RA OVC040
     FM221300 04010KT 4SM -RA OVC025
     FM221400 05012KT 2SM -RA BR OVC009
     FM221900 06011KT 2SM -DZ BR OVC004
     FM230300 03005KT 4SM BR OVC004=




066
FTUS41 KAKQ 221200 CCA
TAFPHF
TAF COR
KPHF 221200Z 2212/2312 04008KT 4SM -RA OVC040
     FM221300 04010KT 4SM -RA OVC025
     FM221400 05012KT 2SM -RA BR OVC009
     FM221900 06011KT 2SM -DZ BR OVC004
     FM230300 03005KT 4SM BR OVC004=


U.S. Dept. of Commerce
NOAA National Weather Service
1325 East West Highway
Silver Spring, MD 20910
E-mail: w-nws.webmaster@noaa.gov
Page last modified: May 16, 2007
NATIONAL WEATHER SERVICE: for Safety, for Work, for Fun - FOR LIFE